Regional Weather Roundup
Issued by NWS State College, PA

Home | Current Version | Previous Version | Graphics & Text | Print | Product List | Glossary On
Versions: 1 2 3 4 5 6 7 8 9 10 11 12 13 14 15 16 17 18 19 20 21 22 23 24 25 26 27 28 29 30 31 32 33 34 35 36 37 38 39 40 41 42 43 44 45 46 47 48 49 50
000
ASUS41 KCTP 221703
RWRCTP

REGIONAL WEATHER ROUNDUP
NATIONAL WEATHER SERVICE STATE COLLEGE PA
100 PM EDT FRI AUG 22 2014

Note: "fair" indicates few or no clouds below 12,000 feet with no
significant weather and/or obstructions to visibility.

* = STATION THAT DOES NOT REPORT PRECIPITATION /E.G. RAIN...SNOW...ETC/
    THUNDER OR FOG.

PAZ002>004-007>009-013>016-020>023-029>032-221800-
WESTERN PENNSYLVANIA

CITY           SKY/WX    TMP DP  RH WIND       PRES   REMARKS
ERIE           PTSUNNY   76  68  76 NW5       29.98F
MEADVILLE      PTSUNNY   76  67  73 CALM      30.01F
FRANKLIN*      CLOUDY    72  66  83 CALM      30.03F
NEW CASTLE     NOT AVBL
BEAVER COUNTY  CLOUDY    77  70  78 CALM      30.02F
BUTLER*        MOSUNNY   77  68  73 SW3       30.03F
PITTSBURGH INT CLOUDY    77  68  73 SW6       30.01S
PITTSBURGH     CLOUDY    77  67  71 S6        30.01F
INDIANA*       PTSUNNY   75  68  78 SW6       30.06F
LATROBE        PTSUNNY   77  72  83 SW3       30.03F
WASHINGTON CO* MOSUNNY   81  72  74 SW8       30.02F
$$

PAZ004>006-010>012-017>019-024>028-033>037-041-042-045-046-049>053-221800-
CENTRAL PENNSYLVANIA

CITY           SKY/WX    TMP DP  RH WIND       PRES   REMARKS
BRADFORD       PTSUNNY   74  64  71 S9        30.04F
DUBOIS         LGT RAIN  70  68  93 S3        30.04S FOG
CLEARFIELD     CLOUDY    71  68  90 CALM      30.04F
JOHNSTOWN      CLOUDY    71  63  75 CALM      30.06F
ALTOONA        CLOUDY    70  68  93 CALM      30.05F FOG
STATE COLLEGE  LGT RAIN  72  70  94 SW7       30.03F FOG
WILLIAMSPORT   PTSUNNY   79  66  64 CALM      29.98F
SELINSGROVE    PTSUNNY   79  68  69 E5        30.00S
FT INDIANTOWN  CLOUDY    74  71  89 E5        30.02F
CAPITAL CITY   CLOUDY    75  68  78 CALM      30.01S
HARRISBURG     CLOUDY    77  68  73 SW3       30.00F
YORK           CLOUDY    77  69  76 E5        30.01S
$$

PAZ038>040-043-044-047-048-054-055-060>062-067>071-221800-
EASTERN PENNSYLVANIA

CITY           SKY/WX    TMP DP  RH WIND       PRES   REMARKS
SCRANTON       PTSUNNY   74  65  73 E6        30.02F
MOUNT POCONO   FOG       65  62  90 S5        30.08S VSB 1
ALLENTOWN      CLOUDY    73  65  75 E3        30.03F
QUAKERTOWN*    CLOUDY    73  66  78 MISG      30.04F
READING        CLOUDY    74  65  73 NE3       30.01F
LANCASTER      PTSUNNY   76  67  73 NE5       30.01F
COATESVILLE    CLOUDY    72  72 100 NE5       30.04S
POTTSTOWN      CLOUDY    73  65  75 CALM      30.03F
BLUE BELL      MOSUNNY   79  68  69 SE6       30.01F
DOYLESTOWN     CLOUDY    73  65  75 CALM      30.02F
WILLOW GROVE   NOT AVBL
NORTH PHILA    CLOUDY    75  65  70 E10       30.04S
PHILADELPHIA   CLOUDY    76  67  73 E10       30.01F
$$


USA.gov is the U.S. government's official web portal to all federal, state and local government web resources and services.